Time,TemperatureF,DewpointF,PressureIn,WindDirection,WindDirectionDegrees,WindSpeedMPH,WindSpeedGustMPH,Humidity,HourlyPrecipIn,Conditions,Clouds,dailyrainin,SoftwareType,DateUTC
2013-02-12 00:00:00,68.0,63.6,30.16,SSE,157,1.0,6.0,86,0.00,,,0.00,Weather View 32 v70,2013-02-12 05:00:00,
2013-02-12 00:05:00,68.0,63.6,30.16,SSE,157,0.0,6.0,86,0.00,,,0.00,Weather View 32 v70,2013-02-12 05:05:00,
2013-02-12 00:10:00,67.0,62.7,30.16,South,180,0.0,6.0,86,0.00,,,0.00,Weather View 32 v70,2013-02-12 05:10:00,
2013-02-12 00:15:00,67.0,63.0,30.16,South,180,0.0,6.0,87,0.00,,,0.00,Weather View 32 v70,2013-02-12 05:15:00,
2013-02-12 00:20:00,67.0,63.0,30.16,South,180,0.0,6.0,87,0.00,,,0.00,Weather View 32 v70,2013-02-12 05:20:00,
2013-02-12 00:25:00,67.0,63.0,30.16,SSW,202,1.0,6.0,87,0.00,,,0.00,Weather View 32 v70,2013-02-12 05:25:00,
2013-02-12 00:26:00,67.0,63.0,30.16,SSW,202,1.0,6.0,87,0.00,,,0.00,Weather View 32 v70,2013-02-12 05:26:00,
2013-02-12 00:30:00,68.0,64.0,30.16,SSW,202,0.0,6.0,87,0.00,,,0.00,Weather View 32 v70,2013-02-12 05:30:00,
2013-02-12 00:35:00,68.0,64.0,30.16,SSW,202,0.0,6.0,87,0.00,,,0.00,Weather View 32 v70,2013-02-12 05:35:00,
2013-02-12 00:40:00,67.0,63.0,30.16,SSW,202,0.0,6.0,87,0.00,,,0.00,Weather View 32 v70,2013-02-12 05:40:00,
2013-02-12 00:45:00,67.0,63.0,30.16,ESE,112,0.0,6.0,87,0.00,,,0.00,Weather View 32 v70,2013-02-12 05:45:00,
2013-02-12 00:50:00,67.0,63.0,30.16,ESE,112,0.0,6.0,87,0.00,,,0.00,Weather View 32 v70,2013-02-12 05:50:00,
2013-02-12 00:55:00,67.0,63.0,30.16,ESE,112,0.0,6.0,87,0.00,,,0.00,Weather View 32 v70,2013-02-12 05:55:00,
2013-02-12 01:00:00,67.0,63.3,30.16,ESE,112,0.0,6.0,88,0.00,,,0.00,Weather View 32 v70,2013-02-12 06:00:00,
2013-02-12 01:05:00,67.0,63.3,30.16,ESE,112,0.0,6.0,88,0.00,,,0.00,Weather View 32 v70,2013-02-12 06:05:00,
2013-02-12 01:10:00,67.0,63.3,30.16,ESE,112,0.0,6.0,88,0.00,,,0.00,Weather View 32 v70,2013-02-12 06:10:00,
2013-02-12 01:20:00,67.0,63.6,30.16,ESE,112,0.0,4.0,89,0.00,,,0.00,Weather View 32 v70,2013-02-12 06:20:00,
2013-02-12 01:25:00,66.0,62.7,30.16,ESE,112,0.0,4.0,89,0.00,,,0.00,Weather View 32 v70,2013-02-12 06:25:00,
2013-02-12 01:30:00,66.0,63.0,30.16,ESE,112,0.0,4.0,90,0.00,,,0.00,Weather View 32 v70,2013-02-12 06:30:00,
2013-02-12 01:35:00,66.0,63.0,30.16,ESE,112,1.0,4.0,90,0.00,,,0.00,Weather View 32 v70,2013-02-12 06:35:00,
2013-02-12 01:40:00,66.0,63.0,30.16,ESE,112,0.0,4.0,90,0.00,,,0.00,Weather View 32 v70,2013-02-12 06:40:00,
2013-02-12 01:50:00,66.0,63.3,30.15,ESE,112,3.0,4.0,91,0.00,,,0.00,Weather View 32 v70,2013-02-12 06:50:00,
2013-02-12 01:55:00,65.0,62.3,30.15,ESE,112,0.0,4.0,91,0.00,,,0.00,Weather View 32 v70,2013-02-12 06:55:00,
2013-02-12 02:00:00,65.0,62.6,30.15,ESE,112,0.0,4.0,92,0.00,,,0.00,Weather View 32 v70,2013-02-12 07:00:00,
2013-02-12 02:05:00,65.0,62.9,30.15,ESE,112,0.0,3.0,93,0.00,,,0.00,Weather View 32 v70,2013-02-12 07:05:00,
2013-02-12 02:10:00,65.0,62.9,30.15,ESE,112,0.0,3.0,93,0.00,,,0.00,Weather View 32 v70,2013-02-12 07:10:00,
2013-02-12 02:15:00,65.0,63.2,30.15,SE,135,0.0,3.0,94,0.00,,,0.00,Weather View 32 v70,2013-02-12 07:15:00,
2013-02-12 02:20:00,65.0,63.5,30.15,SE,135,0.0,3.0,95,0.00,,,0.00,Weather View 32 v70,2013-02-12 07:20:00,
2013-02-12 02:27:00,65.0,63.5,30.15,SE,135,0.0,3.0,95,0.00,,,0.00,Weather View 32 v70,2013-02-12 07:27:00,
2013-02-12 02:35:00,65.0,63.8,30.15,SE,135,0.0,3.0,96,0.00,,,0.00,Weather View 32 v70,2013-02-12 07:35:00,
2013-02-12 02:40:00,65.0,63.5,30.14,SE,135,0.0,3.0,95,0.00,,,0.00,Weather View 32 v70,2013-02-12 07:40:00,
2013-02-12 02:45:00,65.0,63.5,30.14,SE,135,0.0,3.0,95,0.00,,,0.00,Weather View 32 v70,2013-02-12 07:45:00,
2013-02-12 02:50:00,65.0,63.5,30.14,WSW,247,4.0,6.0,95,0.00,,,0.00,Weather View 32 v70,2013-02-12 07:50:00,
2013-02-12 02:55:00,65.0,63.5,30.14,WSW,247,0.0,6.0,95,0.00,,,0.00,Weather View 32 v70,2013-02-12 07:55:00,
2013-02-12 03:00:00,65.0,63.2,30.14,WSW,247,0.0,6.0,94,0.00,,,0.00,Weather View 32 v70,2013-02-12 08:00:00,
2013-02-12 03:05:00,65.0,63.2,30.14,WSW,247,0.0,6.0,94,0.00,,,0.00,Weather View 32 v70,2013-02-12 08:05:00,
2013-02-12 03:10:00,65.0,63.2,30.14,WSW,247,0.0,6.0,94,0.00,,,0.00,Weather View 32 v70,2013-02-12 08:10:00,